SKW5444 KDEN-KASE

Flight info

Callsign SKW5444
Flight time 0h 25m
Altitude 26000
Route CONNR8 CONNR MMARY MMARY1
Aircraft E75L/M-SDE3GILORVW/S

Departure

Time 2026-04-25 16:23
Airport Denver International Airport (KDEN)

Arrival

Time 2026-04-25 16:48
Airport Aspen-Pitkin County Airport (Sardy Field) (KASE)
Time Latitude Longitude Altitude Speed Heading
2026-04-25 15:59 39.85799 -104.66832 5441 ft 0 kts
2026-04-25 16:11 39.85789 -104.66832 5441 ft 2 kts
2026-04-25 16:11 39.85774 -104.66833 5441 ft 2 kts
2026-04-25 16:11 39.85759 -104.66833 5441 ft 2 kts
2026-04-25 16:12 39.85744 -104.66833 5441 ft 2 kts
2026-04-25 16:12 39.85729 -104.66833 5441 ft 2 kts
2026-04-25 16:12 39.85719 -104.66833 5441 ft 0 kts
2026-04-25 16:14 39.85720 -104.66833 5441 ft 0 kts 337°
2026-04-25 16:15 39.85721 -104.66836 5441 ft 0 kts 300°
2026-04-25 16:15 39.85719 -104.66859 5441 ft 4 kts 237°
2026-04-25 16:15 39.85686 -104.66919 5441 ft 10 kts 239°
2026-04-25 16:15 39.85664 -104.67021 5441 ft 12 kts 265°
2026-04-25 16:16 39.85663 -104.67136 5441 ft 13 kts 270°
2026-04-25 16:16 39.85664 -104.67268 5441 ft 16 kts 270°
2026-04-25 16:16 39.85665 -104.67432 5441 ft 20 kts 270°
2026-04-25 16:16 39.85666 -104.67619 5441 ft 21 kts 270°
2026-04-25 16:17 39.85667 -104.67810 5441 ft 21 kts 270°
2026-04-25 16:17 39.85670 -104.68004 5441 ft 21 kts 275°
2026-04-25 16:17 39.85688 -104.68200 5441 ft 21 kts 271°
2026-04-25 16:17 39.85687 -104.68394 5441 ft 20 kts 271°
2026-04-25 16:18 39.85675 -104.68497 5441 ft 10 kts 225°
2026-04-25 16:18 39.85653 -104.68512 5441 ft 10 kts 194°
2026-04-25 16:18 39.85503 -104.68517 5441 ft 15 kts 179°
2026-04-25 16:18 39.85390 -104.68518 5441 ft 16 kts 180°
2026-04-25 16:19 39.85275 -104.68520 5441 ft 16 kts 180°
2026-04-25 16:19 39.85209 -104.68557 5441 ft 10 kts 250°
2026-04-25 16:19 39.85203 -104.68707 5441 ft 22 kts 268°
2026-04-25 16:20 39.85196 -104.69151 5441 ft 24 kts 270°
2026-04-25 16:20 39.85200 -104.69374 5441 ft 25 kts 270°
2026-04-25 16:20 39.85202 -104.69503 5441 ft 0 kts 271°
2026-04-25 16:21 39.85202 -104.69527 5441 ft 7 kts 271°
2026-04-25 16:21 39.85212 -104.69617 5441 ft 13 kts 299°
2026-04-25 16:22 39.85274 -104.69659 5441 ft 10 kts 357°
2026-04-25 16:22 39.85440 -104.69656 5441 ft 54 kts
2026-04-25 16:22 39.86076 -104.69649 5441 ft 124 kts
2026-04-25 16:22 39.87109 -104.69645 5572 ft 165 kts
2026-04-25 16:23 39.88247 -104.69697 6322 ft 168 kts 347°
2026-04-25 16:23 39.89280 -104.70531 6800 ft 192 kts 305°
2026-04-25 16:23 39.89661 -104.72330 7030 ft 231 kts 264°
2026-04-25 16:23 39.88958 -104.74366 7223 ft 271 kts 229°
2026-04-25 16:24 39.87810 -104.76403 7905 ft 288 kts 242°
2026-04-25 16:24 39.87107 -104.78815 9099 ft 286 kts 254°
2026-04-25 16:24 39.86565 -104.81193 9910 ft 279 kts 252°
2026-04-25 16:24 39.85988 -104.83606 9925 ft 277 kts 252°
2026-04-25 16:25 39.85402 -104.86004 9944 ft 277 kts 252°
2026-04-25 16:25 39.85012 -104.87588 9967 ft 278 kts 252°
2026-04-25 16:25 39.84232 -104.90788 9969 ft 285 kts 255°
2026-04-25 16:25 39.83724 -104.93334 10511 ft 298 kts 255°
2026-04-25 16:26 39.83208 -104.95923 11366 ft 298 kts 255°
2026-04-25 16:26 39.82686 -104.98535 12142 ft 301 kts 256°
2026-04-25 16:26 39.82159 -105.01168 12877 ft 305 kts 256°
2026-04-25 16:26 39.81625 -105.03829 13636 ft 309 kts 257°
2026-04-25 16:27 39.81080 -105.06548 14414 ft 312 kts 256°
2026-04-25 16:27 39.80534 -105.09265 15164 ft 315 kts 256°
2026-04-25 16:27 39.79981 -105.12015 15900 ft 317 kts 256°
2026-04-25 16:27 39.79422 -105.14789 16597 ft 321 kts 256°
2026-04-25 16:28 39.78853 -105.17609 17274 ft 324 kts 256°
2026-04-25 16:28 39.78284 -105.20425 17904 ft 327 kts 256°
2026-04-25 16:28 39.77705 -105.23286 18580 ft 329 kts 256°
2026-04-25 16:28 39.77122 -105.26167 19263 ft 331 kts 256°
2026-04-25 16:29 39.76534 -105.29060 19890 ft 333 kts 256°
2026-04-25 16:29 39.75946 -105.31946 20544 ft 333 kts 256°
2026-04-25 16:29 39.75352 -105.34856 21172 ft 334 kts 256°
2026-04-25 16:29 39.74760 -105.37755 21766 ft 336 kts 256°
2026-04-25 16:30 39.74160 -105.40688 22302 ft 338 kts 256°
2026-04-25 16:30 39.73558 -105.43627 22870 ft 340 kts 257°
2026-04-25 16:30 39.72945 -105.46614 23441 ft 341 kts 257°
2026-04-25 16:30 39.72336 -105.49583 23975 ft 343 kts 257°
2026-04-25 16:31 39.71721 -105.52572 24482 ft 345 kts 256°
2026-04-25 16:31 39.71109 -105.55547 24983 ft 347 kts 257°
2026-04-25 16:31 39.70487 -105.58591 25454 ft 350 kts 257°
2026-04-25 16:31 39.69869 -105.61617 25909 ft 347 kts 257°
2026-04-25 16:32 39.69246 -105.64661 25984 ft 356 kts 257°
2026-04-25 16:32 39.68624 -105.67820 26014 ft 369 kts 257°
2026-04-25 16:32 39.68000 -105.71149 26007 ft 380 kts 257°
2026-04-25 16:32 39.67375 -105.74482 25993 ft 381 kts 257°
2026-04-25 16:33 39.66764 -105.77732 25979 ft 368 kts 257°
2026-04-25 16:33 39.66187 -105.80799 25989 ft 364 kts 257°
2026-04-25 16:33 39.65586 -105.83984 25989 ft 364 kts 257°
2026-04-25 16:33 39.64983 -105.87181 25932 ft 366 kts 257°
2026-04-25 16:34 39.64382 -105.90359 25533 ft 366 kts 257°
2026-04-25 16:34 39.63775 -105.93560 25134 ft 362 kts 257°
2026-04-25 16:34 39.63182 -105.96690 24742 ft 361 kts 257°
2026-04-25 16:34 39.62580 -105.99858 24345 ft 358 kts 257°
2026-04-25 16:35 39.61989 -106.02959 23959 ft 355 kts 257°
2026-04-25 16:35 39.61403 -106.06034 23572 ft 355 kts 257°
2026-04-25 16:35 39.60809 -106.09147 23194 ft 354 kts 257°
2026-04-25 16:35 39.60222 -106.12219 22810 ft 352 kts 257°
2026-04-25 16:36 39.59638 -106.15267 22417 ft 351 kts 257°
2026-04-25 16:36 39.59444 -106.16280 22293 ft 350 kts 257°
2026-04-25 16:36 39.58472 -106.21335 21642 ft 342 kts 257°
2026-04-25 16:36 39.57909 -106.24266 21272 ft 327 kts 257°
2026-04-25 16:37 39.57372 -106.27050 20924 ft 314 kts 257°
2026-04-25 16:37 39.56852 -106.29742 20581 ft 303 kts 257°
2026-04-25 16:37 39.56348 -106.32357 20263 ft 300 kts 257°
2026-04-25 16:37 39.55841 -106.34976 19940 ft 303 kts 257°
2026-04-25 16:38 39.55326 -106.37635 19603 ft 304 kts 257°
2026-04-25 16:38 39.54812 -106.40288 19263 ft 305 kts 256°
2026-04-25 16:38 39.54312 -106.42969 18919 ft 303 kts 262°
2026-04-25 16:38 39.54277 -106.45681 18613 ft 304 kts 271°
2026-04-25 16:39 39.54343 -106.48394 18274 ft 303 kts 271°
2026-04-25 16:39 39.54410 -106.51141 17930 ft 303 kts 271°
2026-04-25 16:39 39.54477 -106.53845 17610 ft 302 kts 271°
2026-04-25 16:39 39.54543 -106.56524 17280 ft 301 kts 271°
2026-04-25 16:40 39.54608 -106.59234 16953 ft 299 kts 271°
2026-04-25 16:40 39.54673 -106.61897 16633 ft 297 kts 271°
2026-04-25 16:40 39.54737 -106.64569 16305 ft 297 kts 271°
2026-04-25 16:40 39.54800 -106.67245 15984 ft 296 kts 270°
2026-04-25 16:41 39.54543 -106.69798 15568 ft 289 kts 247°
2026-04-25 16:41 39.53547 -106.72055 14998 ft 288 kts 238°
2026-04-25 16:41 39.51367 -106.76398 13738 ft 290 kts 238°
2026-04-25 16:42 39.50281 -106.78567 13166 ft 290 kts 238°
2026-04-25 16:42 39.49200 -106.80731 13039 ft 286 kts 238°
2026-04-25 16:42 39.48117 -106.82904 13052 ft 286 kts 238°
2026-04-25 16:42 39.47036 -106.85075 13079 ft 288 kts 238°
2026-04-25 16:43 39.45952 -106.87251 13092 ft 288 kts 238°
2026-04-25 16:43 39.44868 -106.89434 13089 ft 289 kts 238°
2026-04-25 16:43 39.43771 -106.91644 13100 ft 289 kts 238°
2026-04-25 16:43 39.42686 -106.93834 13101 ft 289 kts 238°
2026-04-25 16:44 39.41412 -106.95809 13093 ft 291 kts 216°
2026-04-25 16:44 39.39532 -106.96698 13126 ft 295 kts 186°
2026-04-25 16:44 39.37548 -106.96374 12820 ft 283 kts 169°
2026-04-25 16:44 39.35724 -106.95609 12147 ft 268 kts 157°
2026-04-25 16:45 39.34200 -106.94476 11812 ft 243 kts 154°
2026-04-25 16:45 39.32670 -106.93738 11231 ft 228 kts 167°
2026-04-25 16:45 39.31208 -106.93132 10786 ft 210 kts 162°
2026-04-25 16:45 39.30073 -106.92120 10390 ft 201 kts 135°
2026-04-25 16:46 39.29200 -106.90811 10046 ft 182 kts 133°
2026-04-25 16:46 39.28281 -106.89773 9645 ft 169 kts 152°
2026-04-25 16:46 39.27213 -106.89307 9039 ft 168 kts 177°
2026-04-25 16:46 39.26837 -106.89196 8876 ft 166 kts 167°
2026-04-25 16:47 39.25132 -106.88229 8196 ft 153 kts 160°
2026-04-25 16:47 39.24161 -106.87768 7921 ft 145 kts 162°
2026-04-25 16:47 39.23233 -106.87324 7732 ft 141 kts 165°
2026-04-25 16:47 39.22426 -106.86940 7759 ft 96 kts 161°
2026-04-25 16:48 39.21987 -106.86733 7800 ft 38 kts 160°
2026-04-25 16:48 39.21876 -106.86614 7810 ft 6 kts 105°
2026-04-25 16:48 39.21883 -106.86575 7809 ft 3 kts 57°
2026-04-25 16:48 39.21895 -106.86564 7807 ft 5 kts
2026-04-25 16:49 39.21929 -106.86543 7805 ft 2 kts 59°
2026-04-25 16:49 39.21934 -106.86529 7804 ft 0 kts 68°
2026-04-25 16:49 39.21937 -106.86520 7804 ft 2 kts 69°
2026-04-25 16:49 39.21941 -106.86509 7804 ft 0 kts 70°